CW9478 Weather Reports


Display with metric or nautical units.
time (UTC)temp
F
wind
direction
speed
MPH
gust
MPH
rain 1hr
in
rain 24hr
in
rain mn
in
humidity
%
barometer
mb
20210123163321 70 35 9.0 11.0 0.00 0.00 0.00 88 1014.8
20210123163042 69 23 8.0 9.0 0.00 0.00 0.00 88 1014.7
20210123162817 70 36 7.0 9.0 0.00 0.00 0.00 88 1014.8
20210123162313 70 42 7.0 9.0 0.00 0.00 0.00 89 1014.9
20210123161828 70 46 7.0 9.0 0.00 0.00 0.00 89 1014.9
20210123161610 69 45 7.0 9.0 0.00 0.00 0.00 90 1014.9
20210123161325 70 47 7.0 9.0 0.00 0.00 0.00 90 1014.9
20210123160822 70 50 6.0 7.0 0.00 0.00 0.00 91 1014.9
20210123160339 70 44 4.0 8.0 0.00 0.00 0.00 91 1014.9
20210123160037 69 31 4.0 8.0 0.00 0.00 0.00 91 1014.9
20210123155829 69 23 4.0 8.0 0.00 0.00 0.00 91 1014.9
20210123155320 69 10 6.0 8.0 0.00 0.00 0.00 91 1014.8
20210123154816 69 20 4.0 5.0 0.00 0.00 0.00 92 1014.9
20210123154544 69 33 3.0 5.0 0.00 0.00 0.00 92 1014.8
20210123154318 69 40 4.0 5.0 0.00 0.00 0.00 92 1014.8
20210123153829 69 44 4.0 5.0 0.00 0.00 0.00 92 1014.8
20210123153325 69 29 3.0 5.0 0.00 0.00 0.00 92 1014.7
20210123153149 69 38 3.0 5.0 0.00 0.00 0.00 92 1014.7
20210123152819 69 51 3.0 5.0 0.00 0.00 0.00 92 1014.7
20210123152335 69 46 4.0 6.0 0.00 0.00 0.00 92 1014.6
20210123151837 69 34 4.0 6.0 0.00 0.00 0.00 92 1014.6
20210123151612 68 36 4.0 6.0 0.00 0.00 0.00 92 1014.5
20210123151322 69 39 5.0 6.0 0.00 0.00 0.00 92 1014.6
20210123150824 68 42 4.0 6.0 0.00 0.00 0.00 92 1014.6
20210123150334 68 34 4.0 6.0 0.00 0.00 0.00 92 1014.5
20210123150051 68 29 3.0 4.0 0.00 0.00 0.00 92 1014.5
20210123145827 68 25 0.0 3.0 0.00 0.00 0.00 92 1014.7
20210123145322 68 44 0.0 0.0 0.00 0.00 0.00 92 1014.6
20210123144818 68 44 0.0 0.0 0.00 0.00 0.00 92 1014.5
20210123144611 67 44 0.0 0.0 0.00 0.00 0.00 92 1014.5
20210123144333 68 44 0.0 0.0 0.00 0.00 0.00 92 1014.5
20210123143829 68 44 0.0 0.0 0.00 0.00 0.00 92 1014.5
20210123143319 68 39 0.0 3.0 0.00 0.00 0.00 92 1014.5
20210123143056 67 39 0.0 4.0 0.00 0.00 0.00 92 1014.4
20210123142817 68 39 0.0 4.0 0.00 0.00 0.00 92 1014.4
20210123142315 68 25 2.0 4.0 0.00 0.00 0.00 92 1014.3
20210123141830 67 10 2.0 3.0 0.00 0.00 0.00 92 1014.2
20210123141620 67 5 2.0 3.0 0.00 0.00 0.00 92 1014.2
20210123141322 68 5 2.0 3.0 0.00 0.00 0.00 92 1014.2
20210123140818 67 350 0.0 0.0 0.00 0.00 0.00 92 1014.2
20210123140334 67 327 0.0 0.0 0.00 0.00 0.00 92 1014.1
20210123140158 66 327 0.0 0.0 0.00 0.00 0.00 92 1014.1
20210123135830 67 327 0.0 0.0 0.00 0.00 0.00 92 1014.1
20210123135322 67 326 0.0 0.0 0.00 0.00 0.00 92 1014.1
20210123134838 67 325 0.0 0.0 0.00 0.00 0.00 92 1014.2
20210123134546 66 325 0.0 0.0 0.00 0.00 0.00 92 1014.1
20210123134328 67 325 0.0 0.0 0.00 0.00 0.00 92 1014.2
20210123133839 67 326 0.0 0.0 0.00 0.00 0.00 92 1014.1
20210123133321 67 312 0.0 0.0 0.00 0.00 0.00 92 1014.1
20210123133122 66 311 0.0 0.0 0.00 0.00 0.00 92 1014.0
20210123132820 67 311 0.0 0.0 0.00 0.00 0.00 92 1014.0
20210123132317 67 311 0.0 4.0 0.00 0.00 0.00 92 1014.0
20210123131827 67 322 1.0 4.0 0.00 0.00 0.00 92 1013.9
20210123131525 66 312 0.0 1.0 0.00 0.00 0.00 92 1013.8
20210123131316 67 302 0.0 0.0 0.00 0.00 0.00 92 1013.9
20210123130814 67 311 0.0 0.0 0.00 0.00 0.00 92 1014.0
20210123130329 67 321 0.0 0.0 0.00 0.00 0.00 92 1013.8
20210123130102 66 149 0.0 0.0 0.00 0.00 0.00 92 1013.7
20210123125824 67 149 0.0 0.0 0.00 0.00 0.00 92 1013.7
20210123125320 67 149 0.0 0.0 0.00 0.00 0.00 92 1013.8
20210123124814 67 149 0.0 0.0 0.00 0.00 0.00 92 1013.7
20210123124638 66 149 0.0 0.0 0.00 0.00 0.00 92 1013.7
20210123124316 67 149 0.0 0.0 0.00 0.00 0.00 92 1013.8
20210123123828 67 149 0.0 0.0 0.00 0.00 0.00 92 1013.8
20210123123325 67 149 0.0 0.0 0.00 0.00 0.00 92 1013.7
20210123123037 66 149 0.0 0.0 0.00 0.00 0.00 92 1013.6
20210123122840 67 149 0.0 0.0 0.00 0.00 0.00 92 1013.7
20210123122327 67 149 0.0 0.0 0.00 0.00 0.00 92 1013.6
20210123121824 67 149 0.0 0.0 0.00 0.00 0.00 92 1013.4
20210123121538 66 149 0.0 0.0 0.00 0.00 0.00 92 1013.3
20210123121321 67 149 0.0 0.0 0.00 0.00 0.00 92 1013.3
20210123120816 67 149 0.0 0.0 0.00 0.00 0.00 92 1013.3
20210123120311 67 149 0.0 0.0 0.00 0.00 0.00 92 1013.4
20210123120135 66 149 0.0 0.0 0.00 0.00 0.00 92 1013.4
20210123115831 67 149 0.0 0.0 0.00 0.00 0.00 92 1013.5
20210123115323 66 149 0.0 0.0 0.00 0.00 0.00 92 1013.5
20210123114816 66 149 0.0 0.0 0.00 0.00 0.00 92 1013.4
20210123114527 66 149 0.0 0.0 0.00 0.00 0.00 92 1013.3
20210123114337 66 149 0.0 0.0 0.00 0.00 0.00 92 1013.3
20210123113823 66 149 0.0 0.0 0.00 0.00 0.00 92 1013.3
20210123113319 66 149 0.0 0.0 0.00 0.00 0.00 92 1013.2
20210123113119 65 149 0.0 0.0 0.00 0.00 0.00 92 1013.2
20210123112815 66 149 0.0 0.0 0.00 0.00 0.00 92 1013.2
20210123112332 66 149 0.0 0.0 0.00 0.00 0.00 92 1013.2
20210123111826 66 149 0.0 0.0 0.00 0.00 0.00 92 1013.2
20210123111624 65 149 0.0 0.0 0.00 0.00 0.00 92 1013.3
20210123111324 66 149 0.0 0.0 0.00 0.00 0.00 92 1013.3
20210123110812 66 149 0.0 0.0 0.00 0.00 0.00 92 1013.3
20210123110328 66 149 0.0 0.0 0.00 0.00 0.00 92 1013.4
20210123110054 65 149 0.0 0.0 0.00 0.00 0.00 92 1013.3
20210123105828 66 149 0.0 0.0 0.00 0.00 0.00 92 1013.4
20210123105320 66 149 0.0 0.0 0.00 0.00 0.00 92 1013.4
20210123104826 66 149 0.0 0.0 0.00 0.00 0.00 92 1013.3
20210123104545 65 149 0.0 0.0 0.00 0.00 0.00 91 1013.3
20210123104328 66 149 0.0 0.0 0.00 0.00 0.00 92 1013.4
20210123103826 66 149 0.0 0.0 0.00 0.00 0.00 91 1013.4
20210123103326 66 149 0.0 0.0 0.00 0.00 0.00 91 1013.5
20210123103203 65 149 0.0 0.0 0.00 0.00 0.00 91 1013.5
20210123102845 66 149 0.0 0.0 0.00 0.00 0.00 91 1013.5
20210123102335 66 149 0.0 0.0 0.00 0.00 0.00 92 1013.5
20210123101825 66 149 0.0 0.0 0.00 0.00 0.00 92 1013.5
20210123101604 66 149 0.0 0.0 0.00 0.00 0.00 92 1013.5
20210123101319 66 149 0.0 0.0 0.00 0.00 0.00 92 1013.5
20210123100822 66 149 0.0 0.0 0.00 0.00 0.00 92 1013.5
20210123100313 66 149 0.0 0.0 0.00 0.00 0.00 92 1013.5
20210123100205 66 149 0.0 0.0 0.00 0.00 0.00 92 1013.4
20210123095833 66 149 0.0 0.0 0.00 0.00 0.00 92 1013.5
20210123095320 66 149 0.0 0.0 0.00 0.00 0.00 92 1013.4
20210123094839 66 149 0.0 0.0 0.00 0.00 0.00 92 1013.5
20210123094719 66 149 0.0 0.0 0.00 0.00 0.00 92 1013.4
20210123094336 66 149 0.0 0.0 0.00 0.00 0.00 92 1013.5
20210123093823 66 149 0.0 0.0 0.00 0.00 0.00 92 1013.5
20210123093316 66 149 0.0 0.0 0.00 0.00 0.00 92 1013.5
20210123093054 65 149 0.0 0.0 0.00 0.00 0.00 92 1013.5
20210123092814 66 149 0.0 0.0 0.00 0.00 0.00 92 1013.6
20210123092330 66 149 0.0 0.0 0.00 0.00 0.00 92 1013.6
20210123091831 66 149 0.0 0.0 0.00 0.00 0.00 91 1013.6
20210123091736 65 149 0.0 0.0 0.00 0.00 0.00 91 1013.6
20210123091324 66 149 0.0 0.0 0.00 0.00 0.00 91 1013.7
20210123090814 66 149 0.0 0.0 0.00 0.00 0.00 91 1013.6
20210123090335 66 149 0.0 0.0 0.00 0.00 0.00 91 1013.7
20210123090022 66 149 0.0 0.0 0.00 0.00 0.00 91 1013.6
20210123085824 66 149 0.0 0.0 0.00 0.00 0.00 91 1013.7
20210123085337 66 149 0.0 0.0 0.00 0.00 0.00 91 1013.7
20210123084826 66 149 0.0 0.0 0.00 0.00 0.00 91 1013.7
20210123084609 66 149 0.0 0.0 0.00 0.00 0.00 91 1013.6
20210123084321 66 149 0.0 0.0 0.00 0.00 0.00 91 1013.7
20210123083817 67 149 0.0 0.0 0.00 0.00 0.00 91 1013.6
20210123083315 67 149 0.0 0.0 0.00 0.00 0.00 91 1013.7
20210123083214 66 149 0.0 0.0 0.00 0.00 0.00 91 1013.6
20210123082816 67 149 0.0 0.0 0.00 0.00 0.00 91 1013.6
20210123082328 67 149 0.0 0.0 0.00 0.00 0.00 92 1013.7
20210123081818 67 149 0.0 0.0 0.00 0.00 0.00 91 1013.7
20210123081521 66 149 0.0 0.0 0.00 0.00 0.00 91 1013.6
20210123081314 67 149 0.0 0.0 0.00 0.00 0.00 91 1013.6
20210123080828 67 149 0.0 0.0 0.00 0.00 0.00 91 1013.5
20210123080324 67 149 0.0 0.0 0.00 0.00 0.00 92 1013.5
20210123080105 66 149 0.0 0.0 0.00 0.00 0.00 92 1013.5
20210123075819 67 149 0.0 0.0 0.00 0.00 0.00 92 1013.5
20210123075314 67 153 0.0 0.0 0.00 0.00 0.00 91 1013.6
20210123074831 67 154 0.0 0.0 0.00 0.00 0.00 91 1013.7
20210123074635 66 154 0.0 0.0 0.00 0.00 0.00 91 1013.6
20210123074331 67 154 0.0 0.0 0.00 0.00 0.00 91 1013.7
20210123073822 67 154 0.0 0.0 0.00 0.00 0.00 91 1013.7
20210123073345 67 154 0.0 0.0 0.00 0.00 0.00 92 1013.6
20210123073025 66 154 0.0 0.0 0.00 0.00 0.00 92 1013.6
20210123072829 67 154 0.0 0.0 0.00 0.00 0.00 92 1013.7
20210123072325 67 154 0.0 0.0 0.00 0.00 0.00 92 1013.7
20210123071817 66 154 0.0 0.0 0.00 0.00 0.00 92 1013.7
20210123071552 66 154 0.0 0.0 0.00 0.00 0.00 92 1013.6
20210123071313 66 154 0.0 0.0 0.00 0.00 0.00 92 1013.7
20210123070836 67 154 0.0 0.0 0.00 0.00 0.00 92 1013.7
20210123070326 66 154 0.0 0.0 0.00 0.00 0.00 92 1013.8
20210123070124 66 154 0.0 0.0 0.00 0.00 0.00 91 1013.6
20210123065821 66 154 0.0 0.0 0.00 0.00 0.00 91 1013.7
20210123065338 66 154 0.0 0.0 0.00 0.00 0.00 91 1013.7
20210123064833 66 154 0.0 0.0 0.00 0.00 0.00 92 1013.7
20210123064538 66 154 0.0 0.0 0.00 0.00 0.00 91 1013.7
20210123064322 66 154 0.0 0.0 0.00 0.00 0.00 91 1013.7
20210123063817 66 154 0.0 0.0 0.00 0.00 0.00 91 1013.7
20210123063313 66 154 0.0 0.0 0.00 0.00 0.00 91 1013.7
20210123063229 66 154 0.0 0.0 0.00 0.00 0.00 91 1013.7
20210123062826 66 154 0.0 0.0 0.00 0.00 0.00 91 1013.7
20210123062324 66 154 0.0 0.0 0.00 0.00 0.00 91 1013.8
20210123061818 66 154 0.0 0.0 0.00 0.00 0.00 91 1013.9
20210123061335 66 154 0.0 0.0 0.00 0.00 0.00 91 1013.9
20210123060824 66 154 0.0 0.0 0.00 0.00 0.00 91 1013.9
20210123060320 67 154 0.0 0.0 0.00 0.00 0.00 91 1013.9
20210123060028 66 154 0.0 0.0 0.00 0.00 0.00 92 1014.0
20210123055817 67 154 0.0 0.0 0.00 0.00 0.00 92 1014.0
20210123055331 67 154 0.0 0.0 0.00 0.00 0.00 91 1014.1
20210123054828 67 154 0.0 0.0 0.00 0.00 0.00 91 1014.1
20210123054625 66 154 0.0 0.0 0.00 0.00 0.00 91 1014.1
20210123054322 67 154 0.0 0.0 0.00 0.00 0.00 92 1014.1
20210123053820 67 154 0.0 0.0 0.00 0.00 0.00 91 1014.2
20210123053330 67 154 0.0 0.0 0.00 0.00 0.00 91 1014.1
20210123052829 67 154 0.0 0.0 0.00 0.00 0.00 92 1014.2
20210123052314 67 154 0.0 0.0 0.00 0.00 0.00 92 1014.2
20210123051831 67 154 0.0 0.0 0.00 0.00 0.00 92 1014.2
20210123051533 66 154 0.0 0.0 0.00 0.00 0.00 92 1014.2
20210123051326 67 154 0.0 0.0 0.00 0.00 0.00 92 1014.3
20210123050823 67 154 0.0 0.0 0.00 0.00 0.00 92 1014.3
20210123050320 67 154 0.0 3.0 0.00 0.00 0.00 92 1014.3
20210123050051 66 154 0.0 3.0 0.00 0.00 0.00 92 1014.3
20210123045813 67 154 2.0 3.0 0.00 0.00 0.00 92 1014.3
20210123045328 66 154 0.0 3.0 0.00 0.00 0.00 92 1014.3
20210123044825 66 154 2.0 3.0 0.00 0.00 0.00 92 1014.3
20210123044710 66 154 0.0 0.0 0.00 0.00 0.00 92 1014.2
20210123044337 66 154 0.0 0.0 0.00 0.00 0.00 92 1014.3
20210123043833 66 146 0.0 0.0 0.00 0.00 0.00 92 1014.3
20210123043321 66 142 0.0 0.0 0.00 0.00 0.00 92 1014.3
20210123043103 65 113 0.0 0.0 0.00 0.00 0.00 92 1014.2
20210123042819 66 113 0.0 0.0 0.00 0.00 0.00 91 1014.2
20210123042312 66 113 0.0 0.0 0.00 0.00 0.00 92 1014.2
20210123041832 66 113 0.0 0.0 0.00 0.00 0.00 92 1014.1
20210123041628 65 113 0.0 0.0 0.00 0.00 0.00 92 1014.1
20210123041326 65 113 0.0 0.0 0.00 0.00 0.00 91 1014.2
20210123040820 65 113 0.0 0.0 0.00 0.00 0.00 91 1014.2
20210123040351 65 113 0.0 0.0 0.00 0.00 0.00 91 1014.1
20210123040203 65 113 0.0 0.0 0.00 0.00 0.00 91 1014.1
20210123035843 65 113 0.0 0.0 0.00 0.00 0.00 91 1014.1
20210123035323 65 113 0.0 0.0 0.00 0.00 0.00 92 1014.0
20210123034813 65 112 0.0 0.0 0.00 0.00 0.00 91 1014.0
20210123034607 65 113 0.0 0.0 0.00 0.00 0.00 91 1013.9
20210123034330 65 112 0.0 0.0 0.00 0.00 0.00 91 1014.0
20210123033829 65 113 0.0 0.0 0.00 0.00 0.00 91 1013.9
20210123033322 65 113 0.0 0.0 0.00 0.00 0.00 91 1013.9
20210123033112 65 112 0.0 0.0 0.00 0.00 0.00 91 1013.9
20210123032821 65 113 0.0 0.0 0.00 0.00 0.00 91 1013.9
20210123032337 65 113 0.0 0.0 0.00 0.00 0.00 91 1013.9
20210123031833 65 112 0.0 0.0 0.00 0.00 0.00 91 1013.8
20210123031531 64 113 0.0 0.0 0.00 0.00 0.00 91 1013.7
20210123031321 65 113 0.0 0.0 0.00 0.00 0.00 91 1013.8
20210123030822 65 113 0.0 0.0 0.00 0.00 0.00 91 1013.7
20210123030314 65 113 0.0 0.0 0.00 0.00 0.00 91 1013.6
20210123030146 64 113 0.0 0.0 0.00 0.00 0.00 91 1013.5
20210123025826 65 112 0.0 0.0 0.00 0.00 0.00 91 1013.4
20210123025326 65 113 0.0 0.0 0.00 0.00 0.00 90 1013.4
20210123024818 65 113 0.0 0.0 0.00 0.00 0.00 91 1013.3
20210123024622 65 112 0.0 0.0 0.00 0.00 0.00 91 1013.3
20210123024321 65 113 0.0 0.0 0.00 0.00 0.00 91 1013.3
20210123023834 65 113 0.0 0.0 0.00 0.00 0.00 90 1013.2
20210123023334 65 113 0.0 0.0 0.00 0.00 0.00 90 1013.1
20210123023059 65 113 0.0 0.0 0.00 0.00 0.00 90 1013.1
20210123022821 65 112 0.0 0.0 0.00 0.00 0.00 90 1013.0
20210123022322 65 113 0.0 0.0 0.00 0.00 0.00 90 1013.1
20210123021814 66 113 0.0 2.0 0.00 0.00 0.00 90 1013.1
20210123021726 65 113 0.0 3.0 0.00 0.00 0.00 90 1013.0
20210123021311 66 113 2.0 3.0 0.00 0.00 0.00 90 1013.0
20210123020824 66 112 2.0 3.0 0.00 0.00 0.00 91 1012.9
20210123020320 66 113 2.0 4.0 0.00 0.00 0.00 90 1012.8
20210123020152 65 113 2.0 4.0 0.00 0.00 0.00 90 1012.8
20210123015837 66 114 2.0 4.0 0.00 0.00 0.00 90 1012.8
20210123015332 66 116 3.0 6.0 0.00 0.00 0.00 90 1012.8
20210123014820 66 95 4.0 6.0 0.00 0.00 0.00 90 1012.7
20210123014600 65 92 4.0 7.0 0.00 0.00 0.00 90 1012.6
20210123014318 66 92 5.0 7.0 0.00 0.00 0.00 90 1012.7
20210123013817 66 102 5.0 8.0 0.00 0.00 0.00 90 1012.7
20210123013328 66 99 7.0 8.0 0.00 0.00 0.00 90 1012.6
20210123013133 65 90 3.0 7.0 0.00 0.00 0.00 90 1012.6
20210123012826 66 86 4.0 7.0 0.00 0.00 0.00 90 1012.6
20210123012321 66 108 5.0 7.0 0.00 0.00 0.00 90 1012.5
20210123011819 66 112 3.0 6.0 0.00 0.00 0.00 90 1012.5
20210123011524 65 99 4.0 6.0 0.00 0.00 0.00 90 1012.5
20210123011333 66 101 4.0 6.0 0.00 0.00 0.00 90 1012.5
20210123010820 66 105 4.0 6.0 0.00 0.00 0.00 89 1012.4
20210123010317 66 117 4.0 7.0 0.00 0.00 0.00 90 1012.4
20210123010038 66 108 4.0 7.0 0.00 0.00 0.00 89 1012.2
20210123005813 66 102 5.0 8.0 0.00 0.00 0.00 89 1012.3
20210123005330 66 82 5.0 9.0 0.00 0.00 0.00 89 1012.2
20210123004826 66 90 7.0 9.0 0.00 0.00 0.00 89 1012.2
20210123004642 66 88 5.0 7.0 0.00 0.00 0.00 89 1012.1
20210123004321 66 81 5.0 6.0 0.00 0.00 0.00 89 1012.2
20210123003820 67 72 5.0 9.0 0.00 0.00 0.00 89 1012.2
20210123003334 67 92 5.0 9.0 0.00 0.00 0.00 89 1012.1
20210123003020 66 81 5.0 8.0 0.00 0.00 0.00 89 1012.1
20210123002829 67 76 5.0 8.0 0.00 0.00 0.00 89 1012.1
20210123002317 67 85 6.0 8.0 0.00 0.00 0.00 88 1012.1
20210123001812 67 83 6.0 8.0 0.00 0.00 0.00 88 1012.0
20210123001602 67 84 6.0 9.0 0.00 0.00 0.00 88 1012.0
20210123001330 67 81 7.0 9.0 0.00 0.00 0.00 88 1012.0
20210123000827 67 81 6.0 9.0 0.00 0.00 0.00 88 1012.0
20210123000326 67 81 6.0 10.0 0.00 0.00 0.00 88 1012.0
20210123000138 67 83 7.0 10.0 0.00 0.00 0.00 88 1011.9
20210122235823 67 79 8.0 10.0 0.00 0.00 0.00 87 1011.9
20210122235314 68 67 8.0 10.0 0.00 0.00 0.00 87 1011.9
20210122234837 68 56 7.0 10.0 0.00 0.00 0.00 87 1011.8
20210122234524 67 66 7.0 10.0 0.00 0.00 0.00 87 1011.8
20210122234335 68 68 7.0 10.0 0.00 0.00 0.00 87 1011.8
20210122233819 68 65 8.0 12.0 0.00 0.00 0.00 87 1011.8
20210122233314 68 71 9.0 12.0 0.00 0.00 0.00 87 1011.8
20210122233119 67 65 9.0 12.0 0.00 0.00 0.00 87 1011.8
20210122232827 68 73 10.0 12.0 0.00 0.00 0.00 87 1011.9
20210122232323 68 69 10.0 12.0 0.00 0.00 0.00 87 1011.8
20210122231819 68 67 10.0 11.0 0.00 0.00 0.00 87 1011.8
20210122231632 68 74 9.0 12.0 0.00 0.00 0.00 87 1011.6
20210122231313 68 69 10.0 12.0 0.00 0.00 0.00 87 1011.7
20210122230834 68 77 10.0 12.0 0.00 0.00 0.00 86 1011.7
20210122230319 68 63 10.0 14.0 0.00 0.00 0.00 86 1011.7
20210122230026 67 64 11.0 14.0 0.00 0.00 0.00 86 1011.6
20210122225816 68 73 11.0 14.0 0.00 0.00 0.00 86 1011.6
20210122225312 68 71 10.0 14.0 0.00 0.00 0.00 86 1011.6
20210122224829 68 63 11.0 14.0 0.00 0.00 0.00 86 1011.6
20210122224639 68 72 9.0 13.0 0.00 0.00 0.00 86 1011.6
20210122224325 68 63 11.0 13.0 0.00 0.00 0.00 86 1011.6
20210122223819 68 68 10.0 13.0 0.00 0.00 0.00 85 1011.6
20210122223315 68 68 11.0 13.0 0.00 0.00 0.00 85 1011.6
20210122223236 68 73 11.0 13.0 0.00 0.00 0.00 85 1011.5
20210122222837 68 71 11.0 13.0 0.00 0.00 0.00 85 1011.5
20210122222332 69 74 12.0 14.0 0.00 0.00 0.00 85 1011.5
20210122221821 69 61 12.0 14.0 0.00 0.00 0.00 85 1011.4
20210122221615 68 65 11.0 14.0 0.00 0.00 0.00 84 1011.4
20210122221314 69 68 11.0 13.0 0.00 0.00 0.00 84 1011.4
20210122220831 69 65 9.0 12.0 0.00 0.00 0.00 84 1011.4
20210122220328 69 65 11.0 13.0 0.00 0.00 0.00 84 1011.4
20210122220048 68 64 9.0 13.0 0.00 0.00 0.00 84 1011.4
20210122215822 69 67 11.0 13.0 0.00 0.00 0.00 84 1011.4
20210122215326 69 69 9.0 11.0 0.00 0.00 0.00 84 1011.4
20210122214813 69 56 9.0 12.0 0.00 0.00 0.00 83 1011.3
20210122214601 69 56 9.0 13.0 0.00 0.00 0.00 83 1011.3
20210122214327 69 70 10.0 13.0 0.00 0.00 0.00 83 1011.3
20210122213817 69 73 9.0 11.0 0.00 0.00 0.00 84 1011.4
20210122213319 69 63 9.0 12.0 0.00 0.00 0.00 84 1011.4
20210122213030 69 76 9.0 12.0 0.00 0.00 0.00 84 1011.3
20210122212830 70 65 9.0 11.0 0.00 0.00 0.00 85 1011.3
20210122212327 70 63 9.0 12.0 0.00 0.00 0.00 84 1011.3
20210122211822 70 76 9.0 12.0 0.00 0.00 0.00 85 1011.3
20210122211555 69 80 9.0 12.0 0.00 0.00 0.00 85 1011.2
20210122211320 70 72 9.0 11.0 0.00 0.00 0.00 85 1011.3
20210122210815 70 67 8.0 11.0 0.00 0.00 0.00 85 1011.3
20210122210331 70 63 9.0 11.0 0.00 0.00 0.00 85 1011.3
20210122210144 70 68 8.0 10.0 0.00 0.00 0.00 85 1011.3
20210122205825 70 61 7.0 10.0 0.00 0.00 0.00 85 1011.4
20210122205338 70 65 8.0 10.0 0.00 0.00 0.00 85 1011.5
20210122204826 70 61 7.0 10.0 0.00 0.00 0.00 84 1011.6
20210122204556 70 54 7.0 10.0 0.00 0.00 0.00 84 1011.5
20210122204324 70 61 7.0 10.0 0.00 0.00 0.00 83 1011.6
20210122203819 71 58 8.0 10.0 0.00 0.00 0.00 83 1011.6
20210122203315 71 63 7.0 10.0 0.00 0.00 0.00 84 1011.5
20210122203138 70 54 6.0 10.0 0.00 0.00 0.00 84 1011.5
20210122202831 71 63 7.0 10.0 0.00 0.00 0.00 84 1011.5
20210122202327 70 53 6.0 9.0 0.00 0.00 0.00 85 1011.6
20210122201824 70 50 6.0 9.0 0.00 0.00 0.00 85 1011.6
20210122201538 70 77 5.0 9.0 0.00 0.00 0.00 85 1011.7
20210122201314 70 48 5.0 9.0 0.00 0.00 0.00 86 1011.8
20210122200832 70 71 5.0 9.0 0.00 0.00 0.00 86 1011.8
20210122200326 69 75 5.0 8.0 0.00 0.00 0.00 87 1011.8
20210122200045 69 73 4.0 6.0 0.00 0.00 0.00 87 1011.9
20210122195818 69 44 5.0 6.0 0.00 0.00 0.00 88 1011.9
20210122195315 69 35 5.0 7.0 0.00 0.00 0.00 87 1012.0
20210122194829 69 43 6.0 8.0 0.00 0.00 0.00 87 1012.0
20210122194630 68 42 4.0 9.0 0.00 0.00 0.00 88 1012.0
20210122194327 68 36 5.0 9.0 0.00 0.00 0.00 88 1012.1
20210122193822 68 48 6.0 9.0 0.00 0.00 0.00 88 1012.1
20210122193338 68 49 6.0 7.0 0.00 0.00 0.00 88 1012.2
20210122193024 68 53 5.0 8.0 0.00 0.00 0.00 88 1012.3
20210122192835 68 38 5.0 8.0 0.00 0.00 0.00 88 1012.3
20210122192329 68 38 5.0 8.0 0.00 0.00 0.00 88 1012.3
20210122191824 68 42 5.0 8.0 0.00 0.00 0.00 89 1012.4
20210122191623 68 56 5.0 8.0 0.00 0.00 0.00 89 1012.4
20210122191314 68 48 5.0 8.0 0.00 0.00 0.00 89 1012.5
20210122190825 68 44 6.0 8.0 0.00 0.00 0.00 89 1012.6
20210122190322 68 20 3.0 6.0 0.00 0.00 0.00 89 1012.7
20210122190146 68 10 3.0 6.0 0.00 0.00 0.00 89 1012.7
20210122185817 68 331 4.0 6.0 0.00 0.00 0.00 89 1012.7
20210122185336 68 346 5.0 6.0 0.00 0.00 0.00 89 1012.9
20210122184831 68 310 2.0 5.0 0.00 0.00 0.00 90 1013.1
20210122184519 67 319 2.0 5.0 0.00 0.00 0.00 90 1013.1
20210122184326 68 319 3.0 5.0 0.00 0.00 0.00 90 1013.2
20210122183816 68 5 3.0 5.0 0.00 0.00 0.00 90 1013.3
20210122183313 68 314 3.0 7.0 0.00 0.00 0.00 90 1013.3
20210122183128 67 319 4.0 7.0 0.00 0.00 0.00 90 1013.4
20210122182830 68 331 3.0 7.0 0.00 0.00 0.00 90 1013.5
20210122182325 68 306 4.0 6.0 0.00 0.00 0.00 90 1013.6
20210122181817 68 319 3.0 7.0 0.00 0.00 0.00 90 1013.7
20210122181631 67 319 2.0 6.0 0.00 0.00 0.00 90 1013.6
20210122181336 68 329 4.0 6.0 0.00 0.00 0.00 90 1013.8
20210122180833 68 327 4.0 8.0 0.00 0.00 0.00 91 1013.8
20210122180320 68 324 5.0 8.0 0.00 0.00 0.00 90 1013.9
20210122180022 67 304 5.0 8.0 0.00 0.00 0.00 90 1013.9
20210122175816 68 332 6.0 8.0 0.00 0.00 0.00 90 1013.9
20210122175320 67 314 6.0 9.0 0.00 0.00 0.00 90 1014.0
20210122174828 67 333 6.0 9.0 0.00 0.00 0.00 91 1014.2
20210122174624 67 325 5.0 9.0 0.00 0.00 0.00 91 1014.2
20210122174325 67 306 5.0 9.0 0.00 0.00 0.00 91 1014.2
20210122173822 67 304 5.0 9.0 0.00 0.00 0.00 91 1014.3
20210122173329 67 330 7.0 10.0 0.00 0.00 0.00 91 1014.4
20210122173217 67 294 6.0 10.0 0.00 0.00 0.00 91 1014.4
20210122172823 67 294 6.0 10.0 0.00 0.00 0.00 91 1014.5
20210122172312 67 300 5.0 10.0 0.00 0.00 0.00 91 1014.5
20210122171841 67 314 7.0 10.0 0.00 0.00 0.00 91 1014.5
20210122171529 67 332 5.0 10.0 0.00 0.00 0.00 92 1014.5
20210122171330 67 344 6.0 10.0 0.00 0.00 0.00 91 1014.6
20210122170821 67 321 7.0 8.0 0.00 0.00 0.00 91 1014.5
20210122170318 67 343 6.0 8.0 0.00 0.00 0.00 92 1014.5
20210122170031 67 313 6.0 9.0 0.00 0.00 0.00 92 1014.6
20210122165832 67 304 6.0 9.0 0.00 0.00 0.00 92 1014.6
20210122165326 67 321 6.0 9.0 0.00 0.00 0.00 92 1014.6
20210122164822 67 338 6.0 8.0 0.00 0.00 0.00 92 1014.6
20210122164647 67 330 5.0 8.0 0.00 0.00 0.00 93 1014.6
20210122164317 67 327 5.0 6.0 0.00 0.00 0.00 93 1014.7
20210122163829 67 329 4.0 8.0 0.00 0.00 0.00 93 1014.6